Location: City of Moscow
(46.7306°N, 116.9989°W)
Time: 04:16:27
(UTC+00:00)

Orbus 7S? - Pass Details

Date: 21 March 2026
Orbit: 354 x 6170 km, 56.9° (Epoch: 30 September)

Event Time Altitude Azimuth Distance (km) Brightness Sun altitude
Rises 09:41:03 0° 143° (SE) 10,602 9.7 -37.6°
Reaches altitude 10° 09:53:38 10° 128° (SE) 9,652 9.6 -36.3°
Maximum altitude 10:12:15 18° 98° (E) 8,163 9.5 -34.2°
Drops below altitude 10° 10:26:40 10° 66° (ENE) 7,495 9.8 -32.5°
Sets 10:33:46 0° 51° (NE) 7,588 10.2 -31.6°
